Content
SEND FEEDBACK

Daily
Averages
Monthly
Summary
Mauritania

PORT-ETIENNE, MAURITANIA


Home > Africa > Mauritania
Elevation: 10 feet     Latitude: 20 54N     Longitude: 017 06W

WEATHER
 
SELECT A DAY
Number of Records: 121,220;   Date Range: 7/1/96 - 10/29/14
 
SHARE

PRINT THIS DATA

[ ← Previous Day ]
WEATHER ALMANAC - SEPTEMBER 28, 2013
[ Next Day → ]
[ °C ]   °F
Weather ElementAverageHighLow
Temperature78.2 °F89.6 °F (4:00 pm)71.6 °F (12:00 am)
Dewpoint67.3 °F69.8 °F (12:00 pm)64.4 °F (2:00 am)
Humidity68.9 %83 % (12:00 am)39 % (3:00 pm)
Barometer29.97 in30.04 in (11:00 pm)29.92 in (4:00 am)
Wind Speed11.9 mph18.4 mph (10:00 am)
Weather ElementAverage
Visibility5 mi
Wind DirectionW (269.3 °)

Weather ElementTotal
Precipitation---
Cooling Degree Days15.6 (Base 65)
Growing Degree Days30.6 (Base 50)
Averaged from 30 records on September 28, 2013
WEATHER CONDITIONS BREAKOUT
WIND DIRECTION BREAKOUT
WEATHER BY HOUR - SEPTEMBER 28, 2013
[ °C ]   °F
Local TimeTemperatureDewpointHumidityBarometerVisibilityWind DirectionWind SpeedGust SpeedPrecipitationEventsConditions
12:00 AM71.6 °F66.2 °F83 %29.98 in5.0 miNNW (340°)16.1 mph
1:00 AM71.6 °F66.2 °F83 %29.95 in5.0 miNNW (330°)13.8 mph
2:00 AM71.6 °F64.4 °F78 %29.95 in5.0 miNNW (330°)15.0 mph
3:00 AM73.0 °F66.0 °F73 %29.96 in5.0 miNorth16.1 mphPartly Cloudy
3:00 AM73.4 °F64.4 °F73 %29.95 in5.0 miNNW (340°)17.3 mph
4:00 AM73.4 °F64.4 °F73 %29.92 in5.0 miNorth (350°)15.0 mph
5:00 AM73.4 °F66.2 °F78 %29.92 in5.0 miNNW (340°)16.1 mph
6:00 AM73.4 °F66.2 °F78 %29.92 in5.0 miNNW (340°)12.7 mph
6:00 AM72.0 °F67.0 °F79 %29.95 in5.0 miNorth11.5 mphScattered Clouds
8:00 AM71.6 °F66.2 °F83 %29.95 in5.0 miNorth (350°)15.0 mph
9:00 AM75.0 °F68.0 °F74 %30.00 in5.0 miNorth (350°)12.7 mphScattered Clouds
9:00 AM75.2 °F68.0 °F78 %29.98 in5.0 miNorth (350°)13.8 mph
10:00 AM77.0 °F68.0 °F74 %29.98 in5.0 miNorth (360°)18.4 mph
11:00 AM80.6 °F68.0 °F65 %29.98 in5.0 miNorth (360°)15.0 mph
12:00 PM84.2 °F69.8 °F62 %29.98 in5.0 miNorth (10°)13.8 mph
12:00 PM85.0 °F69.0 °F49 %30.01 in5.0 miNorth (10°)13.8 mphClear
1:00 PM87.8 °F68.0 °F52 %29.98 in5.0 miNorth (10°)10.4 mph
2:00 PM87.8 °F68.0 °F52 %29.98 in5.0 miWNW (290°)8.1 mph
3:00 PM89.0 °F67.0 °F39 %29.96 in5.0 miWest (280°)4.6 mph
3:00 PM87.8 °F68.0 °F52 %29.95 in5.0 miWest (280°)4.6 mph
4:00 PM89.6 °F68.0 °F49 %29.95 in5.0 miSSW (210°)5.8 mph
5:00 PM84.2 °F68.0 °F58 %29.95 in5.0 miWNW (290°)6.9 mph
6:00 PM82.4 °F68.0 °F62 %29.95 in5.0 miWNW (300°)8.1 mph
6:00 PM83.0 °F68.0 °F52 %29.96 in5.0 miWNW (300°)8.1 mphClear
7:00 PM78.8 °F68.0 °F69 %29.95 in5.0 miNW (320°)9.2 mph
8:00 PM75.2 °F68.0 °F78 %29.98 in5.0 miNNW (340°)13.8 mph
9:00 PM75.0 °F69.0 °F77 %30.01 in5.0 miNNW (330°)9.2 mphMostly Cloudy
9:00 PM75.2 °F68.0 °F78 %29.98 in5.0 miNNW (330°)9.2 mph
10:00 PM73.4 °F68.0 °F83 %30.01 in5.0 miNW (320°)11.5 mph
11:00 PM73.4 °F68.0 °F83 %30.04 in5.0 miNW (320°)10.4 mph
Hourly data recorded from GQPP, located miles away from Port-Etienne, Mauritania







STORIES FROM OUR PARTNERS